This is the latest recevied weather packets stored in our database for station/object K6CED. If no packets are shown the sender has not sent any weather packets the latest 10 day(s).
| Time | Temp. | Humidity | Pressure | Rain* | Wind** | Luminosity | Snow |
|---|---|---|---|---|---|---|---|
| 1788309816 | 28.89° C | 29% | 1015.9 hPa | 0 mm | - | 127 W/m² | - |
| 1788309511 | 28.89° C | 30% | 1015.9 hPa | 0 mm | - | 146 W/m² | - |
| 1788309206 | 28.89° C | 31% | 1015.9 hPa | 0 mm | - | 159 W/m² | - |
| 1788308902 | 29.44° C | 29% | 1016.1 hPa | 0 mm | - | 182 W/m² | - |
| 1788308601 | 28.89° C | 28% | 1016 hPa | 0 mm | - | 197 W/m² | - |
| 1788308297 | 29.44° C | 29% | 1016.2 hPa | 0 mm | - | 211 W/m² | - |
| 1788307992 | 30° C | 27% | 1016.2 hPa | 0 mm | - | 232 W/m² | - |
| 1788307687 | 29.44° C | 27% | 1016.1 hPa | 0 mm | - | 255 W/m² | - |
| 1788307387 | 30° C | 27% | 1016.3 hPa | 0 mm | - | 277 W/m² | - |
| 1788307082 | 30° C | 27% | 1016.2 hPa | 0 mm | - | 296 W/m² | - |
| 1788306776 | 30° C | 27% | 1016.2 hPa | 0 mm | - | 311 W/m² | - |
| 1788306476 | 30° C | 27% | 1016.3 hPa | 0 mm | - | 324 W/m² | - |
| 1788306171 | 30.56° C | 26% | 1016.2 hPa | 0 mm | - | 336 W/m² | - |
| 1788305865 | 30.56° C | 26% | 1016 hPa | 0 mm | - | 342 W/m² | - |
| 1788305556 | 31.11° C | 25% | 1016.1 hPa | 0 mm | - | 354 W/m² | - |
| 1788305251 | 30.56° C | 25% | 1016.1 hPa | 0 mm | - | 372 W/m² | - |
| 1788304946 | 30.56° C | 24% | 1016.2 hPa | 0 mm | - | 390 W/m² | - |
| 1788304642 | 30.56° C | 23% | 1016.3 hPa | 0 mm | - | 406 W/m² | - |
| 1788304338 | 31.11° C | 23% | 1016.3 hPa | 0 mm | - | 424 W/m² | - |
| 1788304033 | 31.11° C | 24% | 1016.5 hPa | 0 mm | - | 447 W/m² | - |
| 1788303728 | 30.56° C | 22% | 1016.3 hPa | 0 mm | - | 467 W/m² | - |
| 1788303423 | 30.56° C | 22% | 1016.4 hPa | 0 mm | - | 478 W/m² | - |
| 1788303138 | 31.11° C | 22% | 1016.5 hPa | 0 mm | - | 498 W/m² | - |
| 1788302819 | 31.11° C | 21% | 1016.4 hPa | 0 mm | - | 515 W/m² | - |
| 1788302515 | 31.11° C | 22% | 1016.4 hPa | 0 mm | - | 537 W/m² | - |
* Rain latest hour (hover to see other rain measurements)
** Current wind speed in m/s (hover to see current wind gust speed)